GSAT0204 (GALILEO 8)

Last updated on Sun Jan 18 2026 00:02:33 GMT+0000 (Coordinated Universal Time)

1 40545U 15017B 26017.12955114 -.00000080 00000+0 00000+0 0 9993 2 40545 56.8436 345.7335 0005675 274.5101 85.4139 1.70475583 29679
UTC large
Height (km)
Speed (km/s)
/
Latitude / Longitude
Inclination (degrees)
Orbital Period (minutes)
Azimuth
Elevation
Range (km)
Doppler Factor

Next 0 passes for location: London (51.5072 / 0.1276)

Sorry there are no passes over London.